Flag for Belgium Weather past 2 weeks in Eupen, Belgium

Now
54 °F

Overcast.


Feels Like: 54 °F
Forecast: 42 / 60 °F
Wind: 2 mph from West

Location: Spa / La Sauveniere

Current Time: Sep 3, 2015 at 1:20:08 PM

Latest Report: Sep 3, 2015 at 12:00 PM


Visibility: 19 mi

Pressure: 29.99 "Hg

Humidity: 77%

Dew point: 46 °F

Location of EupenLocation

Historic Weather in Eupen — Graph

°F

Eupen temperature yesterday

Maximum temperature yesterday: 60 °F (at 3:00 PM)
Minimum temperature yesterday: 48 °F (at 4:00 AM)
Average temperature yesterday: 53 °F

Past Weeks' High & Low Weather Summary

 TemperatureHumidityPressure
High82 °F (Aug 31, 4:00 PM)97% (Aug 27, 4:00 PM)30.28 "Hg (Aug 27, 4:00 PM)
Low45 °F (Sep 3, 7:00 AM)35% (Aug 31, 3:00 PM)29.54 "Hg (Aug 24, 3:00 PM)
Average61 °F74%29.98 "Hg
* Reported Aug 19 12:00 Noon — Sep 3 12:00 Noon, Eupen, Weather by CustomWeather, © 2015

Note: Actual official high and low records may vary slightly from our data, if they occured in-between our weather recording intervals... More about our weather records

Advertising

Eupen weather history for previous 24 hours

 ConditionsComfort  
Time TempWeatherWind HumidityBarometerVisibility
12:00 PM
Thu, Sep 3
54 °FOvercast.2 mph77%29.99 "Hg19 mi
11:00 AM53 °FPassing clouds.3 mph81%30.00 "Hg9 mi
10:00 AM50 °FFog.3 mph92%30.01 "Hg3 mi
9:00 AM49 °FFog.3 mph95%30.01 "Hg2 mi
8:00 AM47 °FSunny.1 mph97%30.01 "Hg1 mi
7:00 AM45 °FFog.2 mph97%30.01 "Hg2 mi
5:00 AM47 °FPassing clouds.1 mph95%30.02 "Hg11 mi
4:00 AM47 °FOvercast.1 mph93%30.02 "Hg16 mi
3:00 AM49 °FClear.1 mph93%30.02 "Hg7 mi
2:00 AM50 °FOvercast.2 mph94%30.02 "Hg7 mi
1:00 AM50 °FOvercast.2 mph95%30.03 "Hg11 mi
12:00 AM51 °FLight rain. Passing clouds.2 mph92%30.04 "Hg9 mi
11:00 PM
Wed, Sep 2
51 °FOvercast.2 mph91%30.04 "Hg19 mi
10:00 PM51 °FOvercast.1 mph94%30.05 "Hg9 mi
9:00 PM52 °FRain. Overcast.2 mph92%30.05 "Hg4 mi
8:00 PM54 °FOvercast.No wind86%30.02 "Hg11 mi
7:00 PM56 °FPassing clouds.2 mph74%30.02 "Hg25 mi
6:00 PM58 °FSunny.3 mph70%30.01 "Hg22 mi
5:00 PM59 °FPassing clouds.2 mph72%30.01 "Hg19 mi
4:00 PM59 °FPartly sunny.3 mph62%30.02 "Hg22 mi
3:00 PM60 °FSunny.3 mph56%30.02 "Hg19 mi
2:00 PM59 °FScattered clouds.3 mph60%30.03 "Hg22 mi
1:00 PM57 °FPassing clouds.3 mph74%30.05 "Hg19 mi
Weather by CustomWeather, © 2015

See weather overviewHow to use our weather pages